This is the latest recevied weather packets stored in our database for station/object VR2R-13. If no packets are shown the sender has not sent any weather packets the latest 1 day(s).
| Time | Temp. | Humidity | Pressure | Rain* | Wind** | Luminosity | Snow |
|---|---|---|---|---|---|---|---|
| 1836274850 | 20° C | 98% | - | 2.79 mm | 3.13 m/s, 274° | - | - |
| 1836274670 | 20° C | 98% | - | 3.3 mm | 4.02 m/s, 289° | - | - |
| 1836274549 | 20° C | 98% | - | 3.81 mm | 3.58 m/s, 296° | - | - |
| 1836274399 | 20° C | 98% | - | 1.78 mm | 4.47 m/s, 287° | - | - |
| 1836274310 | 20° C | 98% | - | 4.57 mm | 4.02 m/s, 291° | - | - |
| 1836274280 | 20° C | 98% | - | 2.54 mm | 4.02 m/s, 264° | - | - |
| 1836274249 | 20° C | 98% | - | 4.83 mm | 4.47 m/s, 290° | - | - |
| 1836273952 | 20° C | 98% | - | 6.6 mm | 4.92 m/s, 226° | - | - |
| 1836273951 | 20° C | 98% | - | 6.6 mm | 4.92 m/s, 332° | - | - |
| 1778060272 | 18.89° C | 98% | 913.1 hPa | 0 mm | 2.24 m/s, 170° | - | - |
| 1778060153 | 18.33° C | 98% | 913.1 hPa | 0 mm | 1.34 m/s, 148° | - | - |
| 1778059972 | 18.33° C | 98% | 913 hPa | 0 mm | 0 m/s | - | - |
| 1778059793 | 18.33° C | 98% | 913 hPa | 0 mm | 2.24 m/s, 142° | - | - |
| 1778059672 | 18.33° C | 98% | 913 hPa | 0 mm | 2.24 m/s, 151° | - | - |
| 1778059436 | 18.33° C | 98% | 913 hPa | 0 mm | 2.24 m/s, 169° | - | - |
| 1778059372 | 18.33° C | 98% | 913.1 hPa | 0 mm | 1.79 m/s, 179° | - | - |
| 1778059074 | 18.33° C | 98% | 913.1 hPa | 0 mm | 2.24 m/s, 130° | - | - |
| 1778059072 | 18.33° C | 98% | 913.1 hPa | 0 mm | 2.24 m/s, 137° | - | - |
| 1778058772 | 18.33° C | 98% | 913.1 hPa | 0 mm | 2.24 m/s, 159° | - | - |
| 1778058713 | 18.33° C | 98% | 913.1 hPa | 0 mm | 2.24 m/s, 153° | - | - |
| 1778058353 | 18.33° C | 98% | 913 hPa | 0 mm | 2.24 m/s, 68° | - | - |
| 1778058172 | 18.33° C | 98% | 913 hPa | 0 mm | 1.79 m/s, 189° | - | - |
| 1778057993 | 18.33° C | 98% | 913.1 hPa | 0 mm | 2.24 m/s, 102° | - | - |
| 1778057874 | 18.33° C | 98% | 913.1 hPa | 0 mm | 0.89 m/s, 82° | - | - |
| 1778057572 | 17.78° C | 98% | 913.1 hPa | 0 mm | 1.79 m/s, 79° | - | - |
* Rain latest hour (hover to see other rain measurements)
** Current wind speed in m/s (hover to see current wind gust speed)